| time (UTC) | temp C | wind direction | speed KPH | gust KPH | rain 1hr cm | rain 24hr cm | rain mn cm | humidity % | barometer mb |
| 20260503232235 | 19 | 276 | 6.4 | 9.7 | 0.00 | 0.00 | 0.00 | 41 | 1011.6 |
| 20260503231735 | 19 | 158 | 0.0 | 8.0 | 0.00 | 0.00 | 0.00 | 40 | 1011.6 |
| 20260503231235 | 20 | 275 | 4.8 | 8.0 | 0.00 | 0.00 | 0.00 | 40 | 1011.8 |
| 20260503225735 | 19 | 184 | 0.0 | 11.3 | 0.00 | 0.00 | 0.00 | 40 | 1011.6 |
| 20260503225234 | 19 | 29 | 0.0 | 4.8 | 0.00 | 0.00 | 0.00 | 40 | 1011.7 |
| 20260503224734 | 19 | 124 | 0.0 | 9.7 | 0.00 | 0.00 | 0.00 | 40 | 1011.7 |
| 20260503224234 | 19 | 123 | 0.0 | 9.7 | 0.00 | 0.00 | 0.00 | 40 | 1011.9 |
| 20260503223735 | 19 | 132 | 0.0 | 4.8 | 0.00 | 0.00 | 0.00 | 39 | 1011.8 |
| 20260503223234 | 19 | 132 | 0.0 | 4.8 | 0.00 | 0.00 | 0.00 | 40 | 1011.8 |
| 20260503222736 | 19 | 132 | 0.0 | 6.4 | 0.00 | 0.00 | 0.00 | 40 | 1011.9 |
| 20260503221734 | 18 | 130 | 0.0 | 6.4 | 0.00 | 0.00 | 0.00 | 40 | 1012.2 |
| 20260503221234 | 18 | 131 | 0.0 | 6.4 | 0.00 | 0.00 | 0.00 | 40 | 1012.2 |
| 20260503220734 | 18 | 131 | 0.0 | 6.4 | 0.00 | 0.00 | 0.00 | 40 | 1012.3 |
| 20260503215234 | 18 | 183 | 0.0 | 4.8 | 0.00 | 0.00 | 0.00 | 40 | 1012.4 |
| 20260503214734 | 18 | 183 | 0.0 | 4.8 | 0.00 | 0.00 | 0.00 | 40 | 1012.4 |
| 20260503214234 | 18 | 183 | 0.0 | 4.8 | 0.00 | 0.00 | 0.00 | 40 | 1012.4 |
| 20260503213733 | 18 | 183 | 0.0 | 4.8 | 0.00 | 0.00 | 0.00 | 40 | 1012.3 |
| 20260503213233 | 18 | 180 | 3.2 | 11.3 | 0.00 | 0.00 | 0.00 | 40 | 1012.3 |
| 20260503212734 | 18 | 185 | 0.0 | 11.3 | 0.00 | 0.00 | 0.00 | 40 | 1012.4 |
| 20260503212233 | 18 | 129 | 1.6 | 6.4 | 0.00 | 0.00 | 0.00 | 40 | 1012.4 |
| 20260503211733 | 18 | 129 | 1.6 | 11.3 | 0.00 | 0.00 | 0.00 | 40 | 1012.4 |
| 20260503210734 | 18 | 215 | 0.0 | 9.7 | 0.00 | 0.00 | 0.00 | 39 | 1012.4 |
| 20260503205733 | 18 | 111 | 0.0 | 8.0 | 0.00 | 0.00 | 0.00 | 40 | 1012.7 |
| 20260503205233 | 18 | 108 | 0.0 | 8.0 | 0.00 | 0.00 | 0.00 | 39 | 1012.8 |
| 20260503204733 | 18 | 205 | 0.0 | 8.0 | 0.00 | 0.00 | 0.00 | 39 | 1012.8 |
| 20260503204233 | 19 | 196 | 6.4 | 11.3 | 0.00 | 0.00 | 0.00 | 38 | 1012.8 |
| 20260503203733 | 19 | 230 | 0.0 | 11.3 | 0.00 | 0.00 | 0.00 | 38 | 1012.9 |
| 20260503203233 | 19 | 170 | 11.3 | 11.3 | 0.00 | 0.00 | 0.00 | 37 | 1012.9 |
| 20260503202732 | 19 | 219 | 0.0 | 6.4 | 0.00 | 0.00 | 0.00 | 36 | 1012.9 |
| 20260503201733 | 18 | 219 | 0.0 | 6.4 | 0.00 | 0.00 | 0.00 | 36 | 1013.0 |
| 20260503201232 | 18 | 274 | 0.0 | 8.0 | 0.00 | 0.00 | 0.00 | 36 | 1013.0 |
| 20260503200733 | 18 | 165 | 0.0 | 9.7 | 0.00 | 0.00 | 0.00 | 37 | 1013.1 |
| 20260503200232 | 17 | 167 | 3.2 | 9.7 | 0.00 | 0.00 | 0.00 | 37 | 1013.1 |
| 20260503195732 | 17 | 330 | 0.0 | 4.8 | 0.00 | 0.00 | 0.00 | 37 | 1013.1 |
| 20260503195232 | 17 | 330 | 1.6 | 4.8 | 0.00 | 0.00 | 0.00 | 37 | 1013.2 |
| 20260503194733 | 17 | 330 | 1.6 | 3.2 | 0.00 | 0.00 | 0.00 | 36 | 1013.2 |
| 20260503194232 | 17 | 330 | 0.0 | 6.4 | 0.00 | 0.00 | 0.00 | 36 | 1013.3 |
| 20260503193731 | 17 | 330 | 0.0 | 6.4 | 0.00 | 0.00 | 0.00 | 35 | 1013.3 |
| 20260503193232 | 18 | 332 | 0.0 | 9.7 | 0.00 | 0.00 | 0.00 | 35 | 1013.3 |
| 20260503192731 | 18 | 331 | 1.6 | 11.3 | 0.00 | 0.00 | 0.00 | 34 | 1013.3 |
| 20260503192231 | 17 | 326 | 8.0 | 11.3 | 0.00 | 0.00 | 0.00 | 34 | 1013.4 |
| 20260503191733 | 17 | 342 | 6.4 | 9.7 | 0.00 | 0.00 | 0.00 | 33 | 1013.5 |
| 20260503190231 | 16 | 313 | 4.8 | 8.0 | 0.00 | 0.00 | 0.00 | 34 | 1013.7 |
| 20260503185731 | 16 | 313 | 0.0 | 11.3 | 0.00 | 0.00 | 0.00 | 33 | 1013.7 |
| 20260503185231 | 16 | 311 | 3.2 | 11.3 | 0.00 | 0.00 | 0.00 | 33 | 1013.7 |
| 20260503184731 | 16 | 313 | 3.2 | 8.0 | 0.00 | 0.00 | 0.00 | 33 | 1013.7 |
| 20260503184233 | 16 | 314 | 1.6 | 11.3 | 0.00 | 0.00 | 0.00 | 33 | 1013.7 |
| 20260503183731 | 16 | 313 | 3.2 | 11.3 | 0.00 | 0.00 | 0.00 | 32 | 1013.7 |
| 20260503183231 | 16 | 315 | 0.0 | 11.3 | 0.00 | 0.00 | 0.00 | 31 | 1013.7 |
| 20260503182731 | 16 | 284 | 0.0 | 11.3 | 0.00 | 0.00 | 0.00 | 31 | 1013.7 |
| 20260503182230 | 15 | 282 | 4.8 | 16.1 | 0.00 | 0.00 | 0.00 | 31 | 1013.7 |
| 20260503181730 | 15 | 307 | 4.8 | 16.1 | 0.00 | 0.00 | 0.00 | 30 | 1013.7 |
| 20260503180230 | 14 | 282 | 0.0 | 9.7 | 0.00 | 0.00 | 0.00 | 29 | 1013.6 |
| 20260503175731 | 14 | 282 | 0.0 | 9.7 | 0.00 | 0.00 | 0.00 | 29 | 1013.6 |
| 20260503174730 | 14 | 257 | 0.0 | 3.2 | 0.00 | 0.00 | 0.00 | 28 | 1013.6 |
| 20260503174230 | 14 | 259 | 0.0 | 8.0 | 0.00 | 0.00 | 0.00 | 28 | 1013.6 |
| 20260503173730 | 14 | 257 | 0.0 | 8.0 | 0.00 | 0.00 | 0.00 | 28 | 1013.6 |
| 20260503173230 | 14 | 247 | 0.0 | 4.8 | 0.00 | 0.00 | 0.00 | 27 | 1013.6 |
| 20260503172229 | 14 | 246 | 0.0 | 0.0 | 0.00 | 0.00 | 0.00 | 26 | 1013.6 |
| 20260503171729 | 14 | 246 | 0.0 | 0.0 | 0.00 | 0.00 | 0.00 | 26 | 1013.6 |
| 20260503171229 | 14 | 246 | 0.0 | 4.8 | 0.00 | 0.00 | 0.00 | 25 | 1013.6 |
| 20260503170729 | 14 | 246 | 0.0 | 4.8 | 0.00 | 0.00 | 0.00 | 25 | 1013.4 |
| 20260503170230 | 14 | 327 | 3.2 | 4.8 | 0.00 | 0.00 | 0.00 | 25 | 1013.4 |
| 20260503150227 | 13 | 327 | 0.0 | 3.2 | 0.00 | 0.00 | 0.00 | 14 | 1012.6 |
| 20260503140227 | 13 | 327 | 0.0 | 0.0 | 0.00 | 0.00 | 0.00 | 15 | 1012.1 |
| 20260503131226 | 13 | 327 | 0.0 | 0.0 | 0.00 | 0.00 | 0.00 | 16 | 1011.5 |
| 20260503130726 | 13 | 327 | 0.0 | 0.0 | 0.00 | 0.00 | 0.00 | 16 | 1011.5 |
| 20260503130226 | 13 | 327 | 0.0 | 0.0 | 0.00 | 0.00 | 0.00 | 16 | 1011.4 |
| 20260503110724 | 13 | 327 | 0.0 | 0.0 | 0.00 | 0.00 | 0.00 | 19 | 1011.5 |
| 20260503110224 | 13 | 327 | 0.0 | 0.0 | 0.00 | 0.00 | 0.00 | 19 | 1011.6 |
| 20260503090222 | 13 | 327 | 0.0 | 0.0 | 0.00 | 0.00 | 0.00 | 23 | 1011.9 |
| 20260503081222 | 13 | 327 | 0.0 | 0.0 | 0.00 | 0.00 | 0.00 | 24 | 1012.2 |
| 20260503080221 | 13 | 327 | 0.0 | 0.0 | 0.00 | 0.00 | 0.00 | 25 | 1012.3 |
| 20260503072721 | 13 | 327 | 0.0 | 0.0 | 0.00 | 0.00 | 0.00 | 24 | 1012.2 |
| 20260503071721 | 13 | 327 | 0.0 | 0.0 | 0.00 | 0.00 | 0.00 | 24 | 1012.1 |
| 20260503071221 | 13 | 327 | 0.0 | 0.0 | 0.00 | 0.00 | 0.00 | 23 | 1012.1 |
| 20260503070721 | 13 | 327 | 0.0 | 0.0 | 0.00 | 0.00 | 0.00 | 23 | 1012.0 |
| 20260503070251 | 13 | 327 | 0.0 | 0.0 | 0.00 | 0.00 | 0.00 | 22 | 1012.1 |
| 20260503054749 | 12 | 327 | 0.0 | 0.0 | 0.00 | 0.00 | 0.00 | 22 | 1011.5 |
| 20260503053750 | 11 | 327 | 0.0 | 0.0 | 0.00 | 0.00 | 0.00 | 23 | 1011.4 |
| 20260503053250 | 11 | 327 | 0.0 | 0.0 | 0.00 | 0.00 | 0.00 | 24 | 1011.2 |
| 20260503052750 | 11 | 327 | 0.0 | 0.0 | 0.00 | 0.00 | 0.00 | 25 | 1011.1 |
| 20260503052249 | 11 | 327 | 0.0 | 0.0 | 0.00 | 0.00 | 0.00 | 26 | 1011.1 |
| 20260503051750 | 11 | 327 | 0.0 | 0.0 | 0.00 | 0.00 | 0.00 | 26 | 1011.1 |
| 20260503051250 | 12 | 327 | 0.0 | 0.0 | 0.00 | 0.00 | 0.00 | 27 | 1011.2 |
| 20260503050749 | 12 | 327 | 0.0 | 0.0 | 0.00 | 0.00 | 0.00 | 27 | 1011.2 |
| 20260503050249 | 12 | 327 | 0.0 | 0.0 | 0.00 | 0.00 | 0.00 | 27 | 1011.2 |
| 20260503045749 | 12 | 327 | 0.0 | 0.0 | 0.00 | 0.00 | 0.00 | 27 | 1011.1 |
| 20260503044749 | 12 | 327 | 0.0 | 0.0 | 0.00 | 0.00 | 0.00 | 28 | 1011.1 |
| 20260503044249 | 12 | 327 | 0.0 | 0.0 | 0.00 | 0.00 | 0.00 | 29 | 1011.1 |
| 20260503043749 | 12 | 327 | 0.0 | 0.0 | 0.00 | 0.00 | 0.00 | 29 | 1011.0 |
| 20260503043249 | 12 | 327 | 0.0 | 0.0 | 0.00 | 0.00 | 0.00 | 29 | 1011.0 |
| 20260503042749 | 12 | 327 | 0.0 | 0.0 | 0.00 | 0.00 | 0.00 | 29 | 1010.9 |
| 20260503042248 | 13 | 327 | 0.0 | 0.0 | 0.00 | 0.00 | 0.00 | 30 | 1011.0 |
| 20260503041748 | 13 | 327 | 0.0 | 0.0 | 0.00 | 0.00 | 0.00 | 30 | 1010.9 |
| 20260503041249 | 13 | 327 | 0.0 | 0.0 | 0.00 | 0.00 | 0.00 | 30 | 1010.9 |
| 20260503040748 | 13 | 327 | 0.0 | 0.0 | 0.00 | 0.00 | 0.00 | 30 | 1010.9 |
| 20260503040248 | 13 | 327 | 0.0 | 0.0 | 0.00 | 0.00 | 0.00 | 30 | 1010.8 |
| 20260503035748 | 13 | 327 | 0.0 | 0.0 | 0.00 | 0.00 | 0.00 | 31 | 1010.8 |
| 20260503035248 | 13 | 327 | 0.0 | 1.6 | 0.00 | 0.00 | 0.00 | 31 | 1010.8 |
| 20260503034748 | 13 | 327 | 0.0 | 3.2 | 0.00 | 0.00 | 0.00 | 32 | 1010.7 |
| 20260503034248 | 13 | 327 | 0.0 | 4.8 | 0.00 | 0.00 | 0.00 | 32 | 1010.5 |
| 20260503033748 | 13 | 327 | 0.0 | 9.7 | 0.00 | 0.00 | 0.00 | 32 | 1010.5 |
| 20260503033248 | 13 | 327 | 3.2 | 9.7 | 0.00 | 0.00 | 0.00 | 33 | 1010.4 |
| 20260503032748 | 13 | 281 | 0.0 | 9.7 | 0.00 | 0.00 | 0.00 | 34 | 1010.4 |
| 20260503032247 | 14 | 288 | 1.6 | 9.7 | 0.00 | 0.00 | 0.00 | 35 | 1010.5 |
| 20260503031748 | 14 | 280 | 0.0 | 6.4 | 0.00 | 0.00 | 0.00 | 35 | 1010.4 |
| 20260503030747 | 15 | 309 | 0.0 | 9.7 | 0.00 | 0.00 | 0.00 | 37 | 1010.2 |
| 20260503030247 | 15 | 360 | 0.0 | 14.5 | 0.00 | 0.00 | 0.00 | 37 | 1010.2 |
| 20260503025747 | 15 | 280 | 0.0 | 14.5 | 0.00 | 0.00 | 0.00 | 38 | 1010.0 |
| 20260503025247 | 15 | 310 | 0.0 | 9.7 | 0.00 | 0.00 | 0.00 | 39 | 1009.9 |
| 20260503024747 | 15 | 308 | 0.0 | 9.7 | 0.00 | 0.00 | 0.00 | 40 | 1009.9 |
| 20260503024247 | 15 | 309 | 0.0 | 9.7 | 0.00 | 0.00 | 0.00 | 41 | 1009.8 |
| 20260503023747 | 16 | 265 | 1.6 | 8.0 | 0.00 | 0.00 | 0.00 | 41 | 1009.7 |
| 20260503023247 | 16 | 313 | 3.2 | 9.7 | 0.00 | 0.00 | 0.00 | 42 | 1009.6 |
| 20260503022747 | 16 | 314 | 0.0 | 11.3 | 0.00 | 0.00 | 0.00 | 43 | 1009.7 |
| 20260503022247 | 16 | 311 | 0.0 | 11.3 | 0.00 | 0.00 | 0.00 | 43 | 1009.7 |
| 20260503021747 | 17 | 248 | 3.2 | 11.3 | 0.00 | 0.00 | 0.00 | 44 | 1009.7 |
| 20260503021246 | 17 | 262 | 0.0 | 11.3 | 0.00 | 0.00 | 0.00 | 44 | 1009.6 |
| 20260503020747 | 17 | 235 | 3.2 | 8.0 | 0.00 | 0.00 | 0.00 | 45 | 1009.6 |
| 20260503020246 | 17 | 271 | 0.0 | 8.0 | 0.00 | 0.00 | 0.00 | 46 | 1009.6 |
| 20260503015746 | 17 | 265 | 0.0 | 11.3 | 0.00 | 0.00 | 0.00 | 46 | 1009.6 |
| 20260503015247 | 18 | 251 | 6.4 | 12.9 | 0.00 | 0.00 | 0.00 | 46 | 1009.6 |
| 20260503014746 | 18 | 315 | 6.4 | 12.9 | 0.00 | 0.00 | 0.00 | 47 | 1009.7 |
| 20260503014246 | 19 | 296 | 0.0 | 14.5 | 0.00 | 0.00 | 0.00 | 47 | 1009.7 |
| 20260503013746 | 19 | 226 | 4.8 | 17.7 | 0.00 | 0.00 | 0.00 | 47 | 1009.7 |
| 20260503013246 | 20 | 267 | 0.0 | 17.7 | 0.00 | 0.00 | 0.00 | 46 | 1009.6 |
| 20260503012747 | 20 | 260 | 0.0 | 20.9 | 0.00 | 0.00 | 0.00 | 46 | 1009.7 |
| 20260503012246 | 21 | 321 | 0.0 | 20.9 | 0.00 | 0.00 | 0.00 | 45 | 1009.6 |
| 20260503011746 | 21 | 302 | 3.2 | 16.1 | 0.00 | 0.00 | 0.00 | 45 | 1009.7 |
| 20260503011246 | 21 | 293 | 9.7 | 16.1 | 0.00 | 0.00 | 0.00 | 45 | 1009.7 |
| 20260503010746 | 21 | 302 | 0.0 | 12.9 | 0.00 | 0.00 | 0.00 | 45 | 1009.7 |
| 20260503010246 | 22 | 277 | 4.8 | 11.3 | 0.00 | 0.00 | 0.00 | 44 | 1009.8 |
| 20260503005746 | 22 | 314 | 4.8 | 14.5 | 0.00 | 0.00 | 0.00 | 44 | 1009.8 |
| 20260503004745 | 23 | 319 | 3.2 | 22.5 | 0.00 | 0.00 | 0.00 | 43 | 1009.7 |
| 20260503004246 | 23 | 250 | 1.6 | 22.5 | 0.00 | 0.00 | 0.00 | 43 | 1009.7 |
| 20260503003745 | 23 | 232 | 0.0 | 27.4 | 0.00 | 0.00 | 0.00 | 42 | 1009.6 |
| 20260503003245 | 24 | 292 | 8.0 | 27.4 | 0.00 | 0.00 | 0.00 | 42 | 1009.8 |
| 20260503002745 | 25 | 283 | 0.0 | 11.3 | 0.00 | 0.00 | 0.00 | 41 | 1009.7 |
| 20260503002245 | 25 | 292 | 0.0 | 11.3 | 0.00 | 0.00 | 0.00 | 40 | 1009.8 |
| 20260503001745 | 25 | 311 | 0.0 | 17.7 | 0.00 | 0.00 | 0.00 | 40 | 1009.8 |
| 20260503000745 | 25 | 315 | 4.8 | 14.5 | 0.00 | 0.00 | 0.00 | 40 | 1009.8 |
| 20260503000247 | 25 | 280 | 3.2 | 14.5 | 0.00 | 0.00 | 0.00 | 39 | 1009.8 |
| 20260502235745 | 25 | 316 | 1.6 | 14.5 | 0.00 | 0.00 | 0.00 | 39 | 1009.9 |
| 20260502235245 | 25 | 304 | 0.0 | 11.3 | 0.00 | 0.00 | 0.00 | 39 | 1009.9 |
| 20260502234745 | 26 | 234 | 1.6 | 6.4 | 0.00 | 0.00 | 0.00 | 39 | 1009.9 |
| 20260502234244 | 26 | 288 | 0.0 | 12.9 | 0.00 | 0.00 | 0.00 | 38 | 1010.0 |
| 20260502233745 | 25 | 315 | 4.8 | 12.9 | 0.00 | 0.00 | 0.00 | 38 | 1010.0 |
| 20260502233245 | 25 | 308 | 4.8 | 11.3 | 0.00 | 0.00 | 0.00 | 38 | 1009.9 |
| 20260502232745 | 25 | 222 | 3.2 | 8.0 | 0.00 | 0.00 | 0.00 | 38 | 1010.1 |